Location: Codford Saint Peter
(51.1597°N, 2.0531°W)
Time: 00:53:05
(UTC+00:00)

ELECTRON R/B - Pass Details

Date: 07 December 2021
Orbit: 484 x 495 km, 40.0° (Epoch: 23 January)

Event Time Altitude Azimuth Distance (km) Brightness Sun altitude
Rises 07:12:14 0° 248° (WSW) 2,544 ? -6.9°
Reaches altitude 10° 07:15:19 10° 222° (SW) 1,665 ? -6.4°
Maximum altitude 07:17:15 14° 191° (S) 1,455 ? -6.2°
Drops below altitude 10° 07:19:12 10° 160° (SSE) 1,667 ? -5.9°
Sets 07:22:17 0° 133° (SE) 2,550 ? -5.5°
